Theta_e
308 308 307 306 305 303 302 306 309 311 310 308 310 311 310 310 311 311 310 312 314 314 314 316 315 313 317 318 315 314 318 321 321 319 320 319 327 324 324 326 328 330 329 328 332
304 304 305 309 307 305 301 302 306 308 309 309 308 310 311 310 310 310 309 309 309 312 313 313 313 313 316 314 316 316 319 319 318 317 318 318 323 327 326 327 327 330 328 328 330
305 305 303 303 307 307 304 305 305 304 308 308 309 308 311 311 311 310 310 309 308 309 311 312 312 311 315 314 315 319 317 317 316 314 314 317 319 324 327 328 327 328 332 328 330
304 303 304 304 303 307 306 306 305 304 305 307 308 308 310 310 312 312 313 313 312 309 310 311 312 311 312 320 314 317 316 313 313 312 315 317 317 321 324 328 326 328 331 328 329
303 303 302 302 302 303 307 306 306 305 303 307 308 308 310 311 311 313 312 313 313 313 312 311 311 311 312 312 316 318 318 314 312 312 315 316 317 317 317 322 325 326 329 329 329
301 301 303 300 300 302 303 305 305 305 305 306 307 308 309 311 309 309 310 312 312 312 313 310 309 309 309 309 312 315 320 315 313 313 315 316 316 315 316 315 316 322 327 332 333
300 298 300 302 300 301 302 303 305 305 305 304 307 307 308 309 309 309 310 309 310 311 312 313 311 308 309 309 308 309 309 311 311 311 314 314 316 316 315 314 314 315 319 324 331
298 299 300 300 301 300 300 301 303 305 305 304 305 306 308 307 308 309 309 312 312 312 311 312 313 309 310 310 310 309 309 310 316 311 312 314 317 316 314 314 314 316 319 319 324
297 298 299 298 299 300 300 300 302 304 306 303 303 305 306 307 307 307 308 309 311 312 312 312 312 312 310 310 310 310 310 310 310 310 312 314 314 315 308 310 313 313 314 320 322
299 298 297 297 297 299 300 300 301 303 305 304 304 305 305 307 308 307 307 307 308 310 314 314 313 313 311 310 307 308 309 308 309 308 309 312 312 312 309 308 309 310 311 312 316
299 300 299 297 296 299 299 300 301 303 304 304 305 305 307 305 307 307 308 308 309 311 313 313 313 312 311 309 308 307 309 308 307 306 308 310 311 312 312 311 311 310 309 309 311
300 299 300 297 296 299 299 300 302 303 304 304 304 306 306 307 307 307 308 309 310 311 313 313 313 310 310 309 309 307 307 308 307 307 309 309 309 309 309 309 310 311 311 310 309
298 299 299 298 297 298 299 299 301 301 303 303 304 305 306 306 307 308 309 309 309 310 312 313 311 311 310 309 309 308 308 306 307 308 307 307 308 309 309 308 308 308 309 309 310
298 298 299 297 295 296 297 298 298 301 304 304 304 304 305 305 306 306 308 308 310 310 310 312 311 311 311 311 309 309 308 307 307 307 305 307 306 307 307 306 305 306 308 309 309
298 298 298 296 296 298 298 298 298 300 304 303 304 304 305 305 305 305 307 308 309 310 310 310 312 311 312 311 309 308 308 308 308 308 308 307 306 306 305 307 307 307 305 304 304
298 298 297 295 296 296 297 298 299 301 304 303 303 305 305 304 305 306 307 307 308 309 310 310 309 311 311 310 309 308 308 308 308 308 308 306 306 306 306 306 305 305 306 303 304
298 298 296 294 296 297 298 299 301 302 298 302 304 304 304 304 304 305 308 308 308 309 309 309 310 310 310 311 309 309 309 311 311 311 309 306 306 306 306 306 306 306 304 305 305
299 298 294 295 297 298 298 299 303 298 299 301 302 303 303 304 304 304 305 307 307 307 308 309 310 310 310 310 311 309 309 310 309 311 307 305 307 307 306 306 305 304 305 304 303
299 297 294 296 299 299 298 301 302 298 300 303 302 302 302 303 303 304 305 305 306 307 308 308 308 309 310 310 310 310 311 308 308 301 309 308 307 307 307 307 305 306 304 302 299
298 295 296 297 298 298 299 300 298 297 300 302 302 300 303 303 303 304 304 304 305 306 306 308 308 308 309 310 310 310 309 310 311 312 310 308 308 309 309 308 306 305 302 300 298
296 295 297 296 297 298 300 298 298 296 298 300 299 299 301 303 303 303 303 303 304 304 306 306 308 308 309 310 310 311 311 310 309 310 309 307 309 306 309 308 307 302 301 299 297
295 297 296 298 297 294 298 298 297 297 296 298 298 297 301 301 302 304 304 303 300 302 306 305 307 309 309 307 308 310 310 311 311 311 309 308 308 305 306 306 305 300 299 296 295
295 296 296 297 299 296 296 296 297 297 296 297 298 299 298 300 302 301 302 298 299 303 305 306 306 306 306 308 307 311 310 311 312 311 312 310 309 304 303 304 302 301 297 295 293
295 297 295 296 293 295 295 294 298 296 296 296 298 299 300 299 298 301 301 300 299 300 302 303 305 304 304 305 307 308 310 310 311 314 311 310 309 304 304 304 301 299 296 294 292
294 293 293 297 296 296 295 294 297 298 295 295 297 298 299 299 298 298 300 300 299 300 301 302 304 304 304 304 304 306 307 310 311 311 313 311 309 306 304 304 301 299 295 293 292
295 294 292 293 295 296 295 295 295 295 296 296 297 296 294 297 298 298 298 298 299 300 300 301 303 302 301 303 303 305 304 304 308 307 311 308 309 305 303 301 298 297 295 294 293
295 295 295 293 296 297 296 295 295 295 294 294 296 295 296 295 295 295 296 296 298 300 300 300 301 302 301 301 303 302 303 304 304 305 306 307 306 306 304 304 300 297 295 294 292
Wind_Speed
16 16 16 13 12 13 15 18 15 11 11 13 10 9 13 16 15 15 18 19 16 18 19 17 12 10 10 3 1 1 5 7 8 6 4 2 6 3 5 6 6 8 2 4 19
21 21 20 17 16 12 12 13 18 14 12 9 12 8 8 11 14 19 20 19 20 20 15 14 10 11 8 5 5 4 7 10 5 6 5 3 6 5 5 9 8 8 9 8 22
17 20 24 20 15 16 12 12 10 19 15 12 8 10 8 6 10 5 7 14 17 21 18 13 10 8 8 6 8 8 10 14 14 10 7 4 4 4 7 8 12 15 15 13 24
22 19 18 18 17 15 14 13 13 11 17 12 11 10 8 6 4 5 5 7 4 14 15 14 9 5 6 9 8 9 18 17 13 9 5 6 2 4 9 10 5 7 15 16 22
17 19 19 19 19 16 14 14 12 12 14 11 10 10 7 7 9 7 6 5 5 4 6 9 10 10 9 7 9 12 17 19 16 10 9 5 10 7 11 12 7 6 13 17 19
14 15 15 18 19 16 15 12 12 12 12 14 9 10 12 11 12 15 16 8 4 2 3 6 5 8 6 8 15 8 20 20 20 14 8 8 8 1 12 15 15 14 10 16 20
14 18 20 15 16 16 16 16 12 13 14 17 15 11 13 16 9 6 6 15 14 8 7 5 5 6 5 3 8 3 4 10 14 18 8 8 11 10 25 10 10 18 15 15 18
11 13 13 13 12 16 14 17 15 13 14 15 16 12 9 14 20 12 6 3 7 8 8 7 5 6 5 2 2 8 7 13 13 12 9 13 21 14 21 15 19 18 14 19 19
11 11 11 9 12 10 13 13 16 15 13 15 15 11 8 9 22 20 21 18 2 3 6 6 7 5 3 5 4 8 12 18 11 12 6 15 12 16 11 12 19 23 21 15 20
10 9 10 7 8 9 9 11 14 15 13 10 11 5 13 8 9 10 18 18 12 8 6 9 7 7 8 11 11 9 13 6 11 4 9 12 16 8 3 6 12 13 15 20 20
12 10 9 7 7 7 9 7 6 5 13 10 10 7 3 14 9 11 12 14 12 10 9 14 9 13 15 15 9 2 7 13 4 2 5 16 14 18 19 13 12 9 12 17 23
13 11 11 9 6 8 9 7 8 4 5 23 11 19 8 13 6 8 10 12 14 14 13 5 16 14 8 11 12 9 5 6 3 1 5 7 11 15 13 14 21 24 20 18 18
13 10 11 9 7 11 11 11 12 13 4 5 25 18 16 14 4 10 15 12 15 17 18 16 3 14 13 10 14 15 17 9 3 1 1 7 13 14 11 10 14 17 21 21 25
14 12 13 11 10 10 12 11 10 11 5 9 12 13 16 13 9 15 17 14 9 18 16 14 12 9 14 18 15 17 9 10 4 2 7 2 7 5 4 8 10 17 18 20 19
14 12 13 10 5 4 5 4 8 11 5 10 8 9 18 17 8 12 18 15 15 13 11 6 10 10 10 8 14 10 9 12 12 12 9 15 6 6 2 8 11 2 1 3 10
13 13 11 10 14 12 10 2 15 5 6 6 6 11 15 18 7 4 14 13 8 10 11 16 2 10 15 6 15 10 9 6 3 5 8 16 11 8 8 4 2 1 6 6 4
11 14 12 9 10 5 10 11 5 6 3 5 5 10 15 9 15 7 11 15 10 9 12 13 13 4 4 12 9 12 14 5 6 6 9 2 10 14 3 4 7 7 4 6 3
14 14 11 10 10 11 12 4 8 3 5 2 8 12 9 11 13 11 8 13 16 7 6 14 9 17 11 11 8 15 17 6 8 7 6 5 9 2 1 3 1 4 5 7 8
17 12 10 7 10 7 12 8 4 6 6 8 11 5 5 8 6 10 12 14 15 13 11 11 14 7 13 8 15 14 12 3 4 1 2 6 4 4 3 4 5 6 7 9 10
19 11 7 7 7 11 3 3 1 2 3 13 5 2 6 13 8 14 12 8 11 16 18 1 6 9 17 12 18 13 14 9 5 6 7 6 4 5 9 6 5 6 7 8 9
17 8 8 8 4 3 1 1 3 2 1 2 4 5 5 7 7 8 5 2 4 4 17 6 2 4 8 15 20 12 8 9 7 4 6 7 4 2 7 6 8 8 8 9 10
18 3 11 12 2 2 1 3 3 3 6 3 3 5 5 5 3 5 7 1 1 3 9 9 3 5 14 2 4 21 18 16 9 9 6 2 3 3 6 6 10 9 10 11 12
10 6 7 12 2 2 1 3 3 2 2 1 2 1 3 4 5 2 3 3 6 4 4 7 4 5 3 4 4 5 9 10 7 2 12 9 4 6 7 8 8 12 11 10 11
7 3 3 3 3 4 4 2 3 2 3 3 3 4 5 3 2 7 6 5 5 6 7 3 4 5 10 4 2 4 10 13 10 5 9 14 8 10 10 9 9 9 10 11 10
4 2 2 4 3 5 3 2 3 3 3 4 3 0 3 4 2 1 2 7 4 6 2 2 2 4 2 2 1 1 5 11 17 19 6 3 11 16 14 12 11 10 9 9 9
5 5 5 4 9 7 2 1 2 3 2 2 4 4 1 3 1 7 5 1 3 5 6 3 6 4 2 3 1 3 8 9 6 1 10 4 3 5 11 10 12 12 11 10 11
10 15 7 3 3 2 2 3 3 5 4 4 8 5 9 5 7 9 9 7 3 3 4 3 4 2 3 4 1 5 9 14 9 7 9 6 7 12 12 9 12 11 13 13 14
Wind_Direction
269 268 255 256 266 270 252 243 244 252 264 253 256 260 256 253 257 262 258 254 249 250 254 262 273 273 268 238 145 84 248 240 241 212 246 191 211 172 204 164 172 189 139 170 173
266 268 273 256 251 260 262 240 243 250 259 266 250 262 266 261 269 262 263 261 250 256 255 259 276 269 242 189 193 171 244 241 253 253 280 242 232 196 197 190 193 183 184 167 176
271 261 260 264 264 246 246 241 240 243 250 254 264 248 265 268 283 265 256 258 241 237 247 247 258 251 251 193 193 179 244 257 263 257 266 272 247 206 220 213 212 203 186 177 181
271 262 265 272 264 261 242 244 243 245 236 249 247 245 253 240 257 137 83 57 207 217 225 236 234 221 220 218 203 202 226 256 276 254 237 251 244 236 225 227 242 220 193 197 189
264 263 264 259 260 257 245 245 249 244 233 233 243 234 223 217 236 173 123 107 77 122 191 205 199 214 218 226 193 219 226 250 260 258 241 252 248 261 249 234 252 223 202 207 208
288 279 268 253 253 247 249 250 240 249 244 226 220 236 223 231 248 239 243 231 239 207 158 179 199 215 238 228 219 219 233 256 259 253 235 231 242 226 255 241 241 239 223 215 213
277 276 267 258 252 249 236 238 245 237 231 229 223 234 237 226 243 246 240 243 247 233 227 210 213 206 205 220 230 222 227 231 237 237 232 212 236 227 248 249 252 238 235 235 228
281 274 263 252 250 247 241 232 228 230 232 232 233 239 247 245 243 230 202 203 209 216 221 222 217 221 222 261 187 209 235 238 241 200 220 199 253 222 247 236 240 242 236 237 238
286 281 274 267 257 249 239 239 226 219 226 227 237 229 260 222 242 238 237 238 215 251 222 216 212 217 190 216 187 204 231 223 247 206 206 203 248 248 218 217 242 242 244 241 239
281 278 288 272 252 235 234 241 228 221 214 217 216 199 238 207 226 230 226 228 226 243 202 188 192 209 204 201 211 208 222 207 222 186 229 217 238 225 142 216 248 249 245 240 239
302 260 269 285 247 231 223 225 201 212 200 190 193 191 154 202 214 221 208 209 200 210 208 196 212 215 213 216 235 267 216 242 190 137 218 243 248 256 252 248 254 257 250 245 241
298 268 263 284 259 224 222 198 209 176 200 225 221 208 173 165 171 204 196 178 191 203 208 179 229 233 232 213 221 224 213 231 269 122 233 263 256 264 257 254 244 247 248 254 251
296 280 259 285 250 235 225 225 213 224 277 206 210 208 205 206 182 193 186 191 197 202 207 216 173 216 206 207 216 229 231 221 296 293 256 296 266 244 251 245 245 244 244 245 246
286 283 253 268 281 248 245 238 239 224 238 177 185 217 199 186 216 213 195 193 200 211 210 229 201 174 212 225 210 226 214 216 188 308 255 314 278 244 265 273 248 244 239 245 250
280 261 249 268 235 221 219 292 212 187 256 146 157 175 188 186 144 204 201 205 212 188 198 192 181 187 206 215 207 237 171 204 225 246 282 238 262 233 298 267 260 271 241 270 263
264 233 241 243 247 250 259 176 153 181 241 181 153 162 158 192 185 136 188 200 220 220 231 227 193 208 220 185 197 150 135 104 121 216 251 242 224 230 228 244 292 301 353 348 294
236 218 238 236 247 253 212 186 171 220 88 171 165 157 168 168 196 201 184 194 196 197 213 216 216 167 176 190 185 183 171 156 194 199 243 60 214 250 214 302 294 306 14 40 54
213 214 226 230 246 252 214 190 232 114 208 170 153 143 170 147 193 204 211 217 211 219 221 209 207 208 180 204 179 199 192 189 203 208 224 148 229 176 324 63 55 69 78 68 69
201 200 212 213 228 238 190 201 185 163 180 148 132 137 156 168 167 177 209 224 210 194 213 214 224 190 187 184 174 193 222 227 108 61 210 194 243 238 147 107 99 90 82 67 68
189 175 171 206 229 232 229 124 145 100 225 156 140 141 160 177 168 188 187 215 212 205 213 273 213 196 203 211 209 201 186 199 217 204 230 201 237 214 184 162 134 109 99 90 85
177 141 160 199 194 191 234 171 128 96 218 55 100 115 174 157 178 183 207 158 231 164 195 171 237 182 181 205 205 204 198 225 220 224 240 238 202 114 169 162 147 135 120 111 98
152 111 164 173 90 7 83 18 74 98 67 94 134 124 134 121 119 190 189 336 14 227 177 201 179 256 214 80 258 227 211 198 207 202 233 346 183 133 138 134 140 140 134 122 113
111 107 183 167 140 116 60 43 54 80 56 150 127 65 124 137 115 160 122 90 7 204 162 162 198 245 261 221 176 206 222 208 229 337 211 211 181 157 144 141 146 145 139 127 121
117 120 70 122 110 131 132 107 112 61 101 70 94 84 122 98 42 164 144 184 109 43 78 143 199 232 243 283 60 219 217 211 232 234 214 217 209 184 180 174 169 154 147 142 138
86 101 136 143 157 112 63 103 125 83 53 35 75 203 134 121 97 81 154 133 162 160 359 25 316 201 175 88 0 263 326 228 214 226 242 232 219 190 185 182 179 164 158 154 151
115 133 85 75 132 102 23 66 119 129 31 45 113 118 105 134 215 178 146 244 141 154 159 146 188 201 259 154 38 278 263 274 273 69 234 175 178 319 148 141 165 180 181 186 182
110 123 112 45 90 110 161 166 135 139 45 49 134 97 75 50 75 75 88 74 96 153 142 161 167 205 172 347 323 269 220 228 232 188 164 201 214 169 188 201 190 197 206 203 196